Regional Weather Roundup
Issued by NWS Green Bay, WI

Home | Current Version | Previous Version | Text Only | Print | Product List | Glossary On
Versions: 1 2 3 4 5 6 7 8 9 10 11 12 13 14 15 16 17 18 19 20 21 22 23 24 25 26 27 28 29 30 31 32 33 34 35 36 37 38 39 40 41 42 43 44 45 46 47 48 49 50
473
ASUS43 KGRB 301411
RWRGRB

NORTH-CENTRAL AND NORTHEAST WISCONSIN REGIONAL WEATHER ROUNDUP
NATIONAL WEATHER SERVICE GREEN BAY WI
900 AM CDT THU MAR 30 2017

WIZ005-009-010>012-018-019-301500-
NORTH CENTRAL WISCONSIN

CITY           SKY/WX    TMP DP  RH WIND       PRES   REMARKS
IRONWOOD       CLOUDY    35  26  69 E10       30.03F
MANITOWISH WTR CLOUDY    34  28  79 E6        30.01S
ARBOR VITAE    CLOUDY    37  31  81 E5        29.99F
EAGLE RIVER    CLOUDY    33  24  70 E6        30.01S
LAND O LAKES   CLOUDY    33  25  72 E3        30.03S
RHINELANDER    FLURRIES  35  29  78 E12       30.00S
PHILLIPS       CLOUDY    35  30  83 E5        29.98F
ANTIGO         CLOUDY    31  29  93 E10G20    30.00F FOG
TOMAHAWK       LGT SNOW  33  30  86 E5        29.99F
MERRILL        CLOUDY    34  32  91 E13       29.98F
$$

WIZ013-073-301500-
NORTHEAST WISCONSIN

CITY           SKY/WX    TMP DP  RH WIND       PRES   REMARKS
IRON MOUNTAIN  CLOUDY    34  23  64 SE12      30.04F
MARINETTE      LGT SNOW  32  31  96 NE15      30.06F FOG
OCONTO         CLOUDY    32  31  98 NE9       30.04F
$$

WIZ017-030-035>037-045-301500-
CENTRAL WISCONSIN

CITY           SKY/WX    TMP DP  RH WIND       PRES   REMARKS
MEDFORD        CLOUDY    33  31  92 E12       29.94F FOG
WAUSAU         CLOUDY    34  31  88 E13G22    29.96F
MOSINEE        CLOUDY    34  34 100 NE17G24   29.97F
MARSHFIELD     MIX PCPN  34  33  96 E17       29.92F FOG
WISC RAPIDS    CLOUDY    35  35 100 E10G23    29.94F
STEVENS POINT  LGT SNOW  32  32 100 NE15      29.96F
WAUPACA        LGT RAIN  36  34  92 NE9       29.96F
SHAWANO        LGT SNOW  35  32  91 NE12G20   30.02F
CLINTONVILLE   LGT SNOW  32  32 100 E12       30.00F
WAUTOMA        LGT RAIN  35  33  92 NE18      29.92F
$$

WIZ038-039-048-051-301500-
FOX VALLEY

CITY           SKY/WX    TMP DP  RH WIND       PRES   REMARKS
NWS GREEN BAY  LGT SNOW  34  34 100 NE14      30.00F FOG
APPLETON       LGT SNOW  34  34 100 NE14      29.95F
OSHKOSH        LGT SNOW  35  32  88 NE16      29.93F FOG
FOND DU LAC    RAIN      37  32  82 E16G22    29.92F
$$

WIZ022-050-052-301500-
EAST CENTRAL WISCONSIN

CITY           SKY/WX    TMP DP  RH WIND       PRES   REMARKS
EPHRAIM        LGT SNOW  33  32  95 E8        30.05S
WASHINGTON ISL LGT SNOW  33  30  88 E8G16     30.07S
STURGEON BAY   LGT SNOW  34  30  86 NE8       30.04F FOG
MANITOWOC      LGT RAIN  37  35  92 NE9       29.98F
SHEBOYGAN      RAIN      36  33  89 E20       29.94F
$$

LMZ563-521-522-541>543-301500-
LAKESHORE

STATION/POSITION TIME  TEMP    WIND        PRES    VSBY  WAVE
                       AIR SEA DIR/SP/G                  HT/PER
                 (UTC) (F)     (DEG/KT/KT) (MB)    (MI)  (FT/S)
SHEBOYGAN LKSHOR 1400   36      60/ 22/ 25 1013.9F
KEWAUNEE LKSHORE 1348   35      60/ 11/ 15 1015.9F
NORTHPORT PIER   1340   34      80/ 10/ 13 1018.3S
CHAMBERS ISLAND  1340   33      30/  6/  9 1017.9S
MENOMINEE LKSHOR 1348   32      20/ 14/ 16 1017.0F
$$




USA.gov is the U.S. government's official web portal to all federal, state and local government web resources and services.